Regional Weather Roundup
Issued by NWS Newport/Morehead, NC

Current Version | Previous Version | Text Only | Print | Product List | Glossary Off
Versions: 1 2 3 4 5 6 7 8 9 10 11 12 13 14 15 16 17 18 19 20 21 22 23 24 25 26 27 28 29 30 31 32 33 34 35 36 37 38 39 40 41 42 43 44 45 46 47 48 49 50
000 ASUS42 KMHX 260413 RWRMHX WEATHER ROUNDUP FOR EASTERN NORTH CAROLINA NATIONAL WEATHER SERVICE NEWPORT/MOREHEAD CITY NC 1200 AM EDT TUE JUL 26 2016 NOTE: "FAIR" INDICATES FEW OR NO CLOUDS BELOW 12,000 FEET WITH NO SIGNIFICANT WEATHER AND/OR OBSTRUCTIONS TO VISIBILITY NCZ015>017-031-032-045>047-102-103-260500- NORTH COAST CITY SKY/WX TMP DP RH WIND PRES REMARKS EDENTON PTCLDY 83 73 72 SW12G17 29.99F ELIZABETH CITY PTCLDY 82 74 76 SW13 29.98S KITTY HAWK PTCLDY 82 75 80 SW8G16 29.99S MANTEO N/A 82 78 89 SW16 30.00S $$ NCZ045>047-081-094-103-104-260500- CENTRAL COAST CITY SKY/WX TMP DP RH WIND PRES REMARKS FRISCO PTCLDY 81 75 82 SW12 30.03S $$ NCZ095-097-098-100-101-260500- SOUTHERN COAST CITY SKY/WX TMP DP RH WIND PRES REMARKS BEAUFORT CLEAR 83 74 74 SW14 30.05R CEDAR ISLAND NOT AVBL JACKSONVILLE CLEAR 79 74 84 SW7 30.04R PINEY ISLAND NOT AVBL WILMINGTON CLEAR 80 73 79 SW7 30.05R $$ NCZ011>013-027>030-043-044-078>080-089-090>093-098-260500- COASTAL PLAIN CITY SKY/WX TMP DP RH WIND PRES REMARKS AHOSKIE CLOUDY 80 75 84 S7 29.98R CLINTON CLOUDY 80 74 83 S5 30.04R ELIZABETHTOWN CLEAR 79 74 84 S6 30.04S GOLDSBORO PTCLDY 81 77 87 SW7 30.00S GREENVILLE CLEAR 81 73 78 SW10G16 30.02S HAVELOCK CLEAR 81 75 82 SW7 30.05R KENANSVILLE NOT AVBL KINSTON PTCLDY 81 73 75 S10 30.03R NEW BERN CLOUDY 79 75 87 SW8 30.04R RICHLANDS CLOUDY 78 75 90 S7 30.05R ROCKY MOUNT CLEAR 82 75 79 S8G18 30.00R WASHINGTON NOT AVBL WHITEVILLE CLEAR 78 74 85 S6 30.05R $$ AMZ130-135-150-152-154-156-158-170-250-252-270-ANZ085-086-088-633-658-670-260500- MARINE OBSERVATIONS STATION/POSITION TIME TEMP WIND PRES WAVE SWELL AIR SEA DIR/SP/G HT/PER HT/PER (UTC) (F) (DEG/KT/KT) (MB) (FT/S) (FT/S) CHESAPEAKE LIGHT NOT AVBL 64 E VA BEACH 0350 83 81 220/ 17/ 21 1014.6 4/ 6 2/ 8 DUCK 0300 84 64 210/ 14/ 18 N/A 2 E DUCK 0311 69 N/A 2/ 8 OREGON INLET 0300 84 85 210/ 20/ 23 N/A 13E OREGON INLT 0400 82 N/A 3/ 5 2/ 8 HATTERAS CG 0300 83 83 220/ 11/ 16 N/A DIAMOND BUOY 0350 84 85 220/ 17/ 21 1016.8 5/ 5 2/ 8 CAPE LOOKOUT 0400 83 230/ 11/ 15 1017.3 BEAUFORT LAB 0300 84 84 220/ 9/ 14 N/A 30 SE NEW RVR IN 0308 84 85 220/ 17/ 21 1017.3 30 SE NEW RVR IN 0325 85 N/A 4/ 5 27 SE WRIGHTSVLE 0308 84 85 220/ 16/ 19 1017.6 5 SE WRIGHTSVLE NOT AVBL 225 S CAPE HAT 0350 83 84 180/ 6/ 8 1019.5 2/ 8 2/ 8 41 SE CHARLESTON 0350 85 86 210/ 12/ 14 1017.7 2/ 8 2/ 8 $$

USA.gov is the U.S. government's official web portal to all federal, state and local government web resources and services.